Date,TemperatureHighF,TemperatureAvgF,TemperatureLowF,DewpointHighF,DewpointAvgF,DewpointLowF,HumidityHigh,HumidityAvg,HumidityLow,PressureMaxIn,PressureMinIn,WindSpeedMaxMPH,WindSpeedAvgMPH,GustSpeedMaxMPH,PrecipitationSumIn
2013-10-1,78.6,66.0,57.7,67.6,62.4,57.4,99,89,67,30.03,23.02,8,-2,8,0.00
2013-10-2,80.4,65.9,57.4,70.2,62.0,9.1,99,88,66,30.07,29.68,11,-1,11,0.00
2013-10-3,75.9,62.3,49.5,60.1,55.3,49.3,99,79,53,30.13,30.02,11,2,11,0.00
2013-10-4,69.3,62.3,58.3,64.4,60.2,56.1,99,93,82,30.10,29.89,10,2,10,0.17
2013-10-5,66.2,62.7,60.6,63.5,60.5,59.2,99,93,85,30.09,29.72,9,2,9,0.12
2013-10-6,76.1,66.7,59.7,72.0,65.0,59.4,99,95,84,30.03,29.76,24,4,24,0.12
2013-10-7,71.8,62.5,52.0,67.6,59.0,48.7,99,89,73,31.34,29.61,23,6,23,0.61
2013-10-8,70.2,56.5,46.2,55.6,49.3,45.1,99,79,47,31.34,27.26,15,3,15,0.00
2013-10-9,72.7,54.4,42.8,54.5,48.8,42.3,99,83,44,31.34,30.26,10,2,10,0.00
2013-10-10,66.9,54.0,44.1,54.1,49.3,43.5,99,86,58,31.34,30.11,8,2,21,0.00
2013-10-11,72.7,55.4,47.5,58.8,52.1,47.1,99,90,57,31.34,30.09,115,-51,115,0.00
2013-10-12,78.1,59.9,43.9,61.3,51.9,43.3,99,78,33,31.34,29.53,9,2,9,0.00
2013-10-13,77.4,62.9,53.2,59.2,55.9,52.5,98,80,51,31.34,30.21,17,4,17,0.05
2013-10-14,67.5,58.6,50.0,59.9,56.2,49.6,99,93,70,30.31,30.24,12,3,12,0.33
2013-10-15,74.7,58.0,47.1,58.8,53.7,46.9,99,87,55,30.28,29.96,8,3,8,0.00
2013-10-16,62.2,60.4,56.7,59.0,55.4,49.8,99,84,67,29.96,29.74,17,5,17,0.31
2013-10-17,68.9,58.0,47.7,57.6,53.9,47.5,99,87,64,29.86,29.63,11,-1,11,0.30
2013-10-18,66.6,54.5,47.5,53.4,48.5,43.0,99,82,48,29.89,29.67,16,4,16,0.01
2013-10-19,67.3,55.1,46.4,52.0,47.4,44.4,96,77,50,29.88,29.61,17,4,17,0.04
2013-10-20,64.6,49.9,-18.8,46.9,43.0,-20.4,97,79,43,29.97,29.70,15,4,15,0.01
2013-10-21,64.6,55.7,45.5,51.8,44.9,41.9,96,69,45,29.97,29.76,14,3,14,0.00
2013-10-22,59.4,50.1,39.2,52.2,41.0,29.3,99,73,34,29.82,29.70,60,5,60,0.08
2013-10-23,54.7,44.6,38.8,43.5,38.0,-12.1,99,79,10,29.80,29.65,21,0,21,2.34
2013-10-24,54.7,42.5,36.5,42.3,36.8,31.8,99,81,52,29.94,29.70,21,7,21,0.22
2013-10-25,55.6,45.3,38.8,43.2,37.5,-12.1,99,75,10,30.14,29.94,19,-2,19,0.09
2013-10-26,47.3,44.2,39.7,40.1,35.4,-12.1,98,72,56,30.08,29.75,16,5,16,0.01
2013-10-27,51.4,44.3,40.3,44.6,39.3,-12.1,96,83,10,30.03,29.75,19,5,19,0.19
2013-10-28,57.4,44.8,33.3,43.5,34.5,-12.1,86,68,44,30.37,29.98,22,4,22,0.00
2013-10-29,51.4,38.9,28.9,34.3,29.1,23.2,80,68,49,30.44,30.26,10,3,10,0.00
2013-10-30,60.6,44.9,37.0,46.2,40.4,-12.1,99,85,57,30.26,23.68,8,2,8,0.05
2013-10-31,60.6,54.3,42.6,59.5,52.6,40.1,99,94,86,30.09,29.40,17,5,17,0.47